Latest Coastal Weather Observations for Truscott

IDW60701

Issued at 12:33 am WST Wednesday 22 February 2017 (issued every 10 minutes, with the page automatically refreshed every 10 minutes)

About coastal observations | Map of coastal stations | Coastal observations for WA | Marine services | Other Formats
Station Details ID: 001020 Name: TRUSCOTT Lat: -14.09 Lon: 126.39 Height: 51.0 m
Data from the previous 72 hours. | See also: Recent months at Truscott
Date/Time
WST
Temp
°C
Wind Pressure Rain since
9am
mm
Weather Cloud Vis
km
Sea
Height
m
Swell
Dir  Spd
kts
Gust
kts
hPa Trend Height
m
Period
s
Dir
22/12:30am 26.8 SW 4 5 1010.0 - 0.0 - - 10 - - - -
22/12:00am 27.3 WSW 4 6 1010.3 - 0.0 - - 10 - - - -
 
Date/Time
WST
Temp
°C
Wind Pressure Rain since
9am
mm
Weather Cloud Vis
km
Sea
Height
m
Swell
Dir  Spd
kts
Gust
kts
hPa Trend Height
m
Period
s
Dir
21/11:30pm 27.0 SW 5 - 1011.0 - 0.0 - - 10 - - - -
21/11:00pm 27.6 WSW 4 6 1010.8 - 0.0 - - 10 - - - -
21/10:30pm 27.6 WSW 4 5 1011.2 - 0.0 - - 10 - - - -
21/10:00pm 27.6 WSW 4 6 1011.3 - 0.0 - - 10 - - - -
21/09:30pm 27.0 WSW 3 - 1011.0 - 0.0 - - 10 - - - -
21/09:00pm 27.5 WSW 3 - 1010.9 - 0.0 - - 10 - - - -
21/08:30pm 27.1 WNW 1 3 1010.6 - 0.0 - - 10 - - - -
21/08:00pm 27.7 WNW 3 - 1010.4 - 0.0 - - 10 - - - -
21/07:30pm 27.9 NW 3 4 1010.1 - 0.0 - - 10 - - - -
21/07:00pm 28.2 NW 3 4 1009.5 - 0.0 - - 10 - - - -
21/06:30pm 29.0 NW 3 - 1009.0 - 0.0 - - 10 - - - -
21/06:00pm 29.4 NNW 4 6 1009.1 - 0.0 - - 10 - - - -
21/05:30pm 30.5 NW 5 7 1008.6 - 0.0 - - 10 - - - -
21/05:00pm 30.9 NNW 7 - 1008.3 - 0.0 - - 10 - - - -
21/04:30pm 32.0 WNW 7 - 1008.0 - 0.0 - - 10 - - - -
21/04:00pm 31.5 NW 7 - 1007.7 - 0.0 - - 10 - - - -
21/03:30pm 31.5 NNW 8 11 1007.8 - 0.0 - - 10 - - - -
21/03:00pm 31.6 NNW 7 9 1008.0 - 0.0 - - 10 - - - -
21/02:30pm 32.0 NNW 7 - 1008.0 - 0.0 - - 10 - - - -
21/02:00pm 31.9 NNW 7 11 1008.4 - 0.0 - - 10 - - - -
21/01:30pm 32.0 NNW 8 - 1009.0 - 0.0 - - 10 - - - -
21/01:00pm 32.2 N 6 - 1009.0 - 0.0 - Partly cloudy 10 - - - -
21/12:30pm 32.0 N 4 - 1009.0 - 0.0 - Partly cloudy 10 - - - -
21/12:00pm 32.2 W 6 - 1010.2 - 0.0 - Partly cloudy 10 - - - -
21/11:30am 32.0 WNW 6 - 1011.0 - 0.0 - Partly cloudy 10 - - - -
21/11:00am 31.8 NW 6 - 1011.0 - 0.0 - Partly cloudy 10 - - - -
21/10:30am 32.0 N 3 - 1011.0 - 0.0 - - 10 - - - -
21/10:00am 31.3 S 1 - 1011.6 - 0.0 - - 10 - - - -
21/09:30am 31.0 WSW 4 - 1012.0 - 0.0 - - 10 - - - -
21/09:00am 30.7 SW 2 - 1012.0 - 1.2 - - 10 - - - -
21/08:30am 30.0 SW 1 - 1012.0 - 1.2 - - 10 - - - -
21/08:00am 28.6 N 1 - 1011.9 - 1.2 - - 10 - - - -
21/07:30am 27.5 WNW 3 4 1011.8 - 1.2 - - 10 - - - -
21/07:00am 27.2 W 3 4 1011.4 - 1.2 - - 10 - - - -
21/06:30am 26.0 WSW 1 - 1011.0 - 1.2 - - 10 - - - -
21/06:00am 24.7 WSW 3 - 1010.5 - 1.2 - - 10 - - - -
21/05:30am 24.1 CALM 0 0 1010.0 - 1.2 - - 10 - - - -
21/05:00am 24.2 CALM 0 0 1009.7 - 1.2 - - 10 - - - -
21/04:30am 24.3 CALM 0 2 1009.5 - 1.2 - - 10 - - - -
21/04:00am 24.2 S 3 - 1009.1 - 1.2 - - 10 - - - -
21/03:30am 24.4 CALM 0 0 1008.9 - 1.2 - - 10 - - - -
21/03:00am 25.1 SW 2 - 1008.5 - 1.2 - - 10 - - - -
21/02:30am 25.0 SSW 1 - 1009.0 - 1.2 - - 10 - - - -
21/02:00am 25.1 CALM 0 0 1008.5 - 1.2 - - 10 - - - -
21/01:30am 26.0 SSW 3 - 1009.0 - 1.2 - - 10 - - - -
21/01:00am 25.6 SSW 3 - 1009.1 - 1.2 - - 10 - - - -
21/12:30am 25.7 S 2 3 1009.2 - 1.2 - - 10 - - - -
21/12:00am 25.9 S 3 5 1009.3 - 1.2 - - 10 - - - -
 
Date/Time
WST
Temp
°C
Wind Pressure Rain since
9am
mm
Weather Cloud Vis
km
Sea
Height
m
Swell
Dir  Spd
kts
Gust
kts
hPa Trend Height
m
Period
s
Dir
20/11:30pm 26.0 SSE 3 4 1009.7 - 1.2 - Partly cloudy 10 - - - -
20/11:00pm 26.7 SW 3 4 1010.0 - 1.2 - Partly cloudy 10 - - - -
20/10:30pm 26.8 SSW 4 5 1010.3 - 1.2 - Cloudy 10 - - - -
20/10:00pm 26.7 WSW 4 - 1010.2 - 1.0 - Partly cloudy 10 - - - -
20/09:30pm 27.0 SW 5 - 1010.0 - 1.0 - Partly cloudy 10 - - - -
20/09:00pm 26.9 S 4 - 1010.0 - 1.0 - Partly cloudy 10 - - - -
20/08:30pm 27.0 S 4 5 1009.9 - 1.0 - Partly cloudy 10 - - - -
20/08:00pm 26.8 SSE 3 4 1009.6 - 1.0 - Partly cloudy 10 - - - -
20/07:30pm 27.0 ESE 1 - 1009.0 - 1.0 - Partly cloudy 10 - - - -
20/07:00pm 27.3 SW 4 5 1009.1 - 1.0 - Partly cloudy 10 - - - -
20/06:30pm 27.0 S 4 - 1008.0 - 1.0 - - 10 - - - -
20/06:00pm 27.9 SSW 6 - 1008.3 - 1.0 - Cloudy 10 - - - -
20/05:30pm 27.7 SE 4 5 1007.8 - 1.0 - Partly cloudy 10 - - - -
20/05:00pm 27.6 ENE 5 6 1007.1 - 1.0 - Partly cloudy 10 - - - -
20/04:30pm 27.0 W 5 - 1007.0 - 1.0 - - 10 - - - -
20/04:00pm 27.4 NW 5 8 1006.5 - 1.0 - Partly cloudy 10 - - - -
20/03:30pm 28.0 ENE 5 - 1007.0 - 1.0 - Partly cloudy 10 - - - -
20/03:25pm 28.0 ENE 7 - 1007.0 - 1.0 - Partly cloudy 8 - - - -
20/03:00pm 32.7 N 6 - 1006.7 - 0.0 - Mostly clear 10 - - - -
20/02:30pm 32.0 NNW 7 - 1006.0 - 0.0 - - 10 - - - -
20/02:00pm 31.9 NNW 8 - 1006.0 - 0.0 - - 10 - - - -
20/01:30pm 31.8 NNW 8 12 1006.1 - 0.0 - - 10 - - - -
20/01:00pm 32.4 WNW 8 - 1006.6 - 0.0 - - 10 - - - -
20/12:30pm 33.0 WNW 6 - 1007.0 - 0.0 - - 10 - - - -
20/12:00pm 32.0 NW 6 - 1007.3 - 0.0 - - 10 - - - -
20/11:30am 32.0 WNW 5 - 1008.0 - 0.0 - - 10 - - - -
20/11:00am 31.7 WNW 7 10 1008.2 - 0.0 - - 10 - - - -
20/10:30am 32.0 WSW 4 - 1008.0 - 0.0 - - 10 - - - -
20/10:00am 30.8 WNW 4 - 1008.8 - 0.0 - - 10 - - - -
20/09:30am 30.0 WSW 3 - 1009.0 - 0.0 - - 10 - - - -
20/09:00am 29.4 SW 3 5 1009.4 - 11.4 - - 10 - - - -
20/08:30am 28.0 SW 3 - 1009.0 - 11.4 - - 10 - - - -
20/08:00am 27.6 WSW 2 - 1009.4 - 11.4 - - 10 - - - -
20/07:30am 27.0 W 4 - 1009.0 - 11.4 - - 10 - - - -
20/07:00am 26.2 WSW 4 5 1009.4 - 11.4 - - 10 - - - -
20/06:30am 24.8 CALM 0 3 1009.0 - 11.4 - - 10 - - - -
20/06:00am 24.0 CALM 0 0 1008.7 - 11.4 - - 10 - - - -
20/05:30am 23.9 CALM 0 0 1008.4 - 11.4 - - 10 - - - -
20/05:00am 24.2 CALM 0 0 1007.8 - 11.4 - - 10 - - - -
20/04:30am 24.3 CALM 0 3 1007.5 - 11.4 - - 10 - - - -
20/04:00am 24.6 CALM 0 0 1007.3 - 11.4 - - 10 - - - -
20/03:30am 24.6 CALM 0 0 1007.1 - 11.4 - - 10 - - - -
20/03:00am 24.6 W 2 4 1007.1 - 11.4 - - 10 - - - -
20/02:30am 24.9 SW 3 5 1007.2 - 11.4 - - 10 - - - -
20/02:00am 25.0 SW 3 4 1007.4 - 11.4 - - 10 - - - -
20/01:30am 25.1 SW 4 6 1007.5 - 11.4 - - 10 - - - -
20/01:00am 25.3 S 2 - 1007.8 - 11.4 - - 10 - - - -
20/12:30am 25.4 SSW 3 4 1007.9 - 11.4 - - 10 - - - -
20/12:00am 25.5 SSW 4 - 1008.1 - 11.4 - - 10 - - - -
 
Date/Time
WST
Temp
°C
Wind Pressure Rain since
9am
mm
Weather Cloud Vis
km
Sea
Height
m
Swell
Dir  Spd
kts
Gust
kts
hPa Trend Height
m
Period
s
Dir
19/11:30pm 26.0 SW 3 - 1008.0 - 11.4 - - 10 - - - -
19/11:00pm 25.9 SW 4 4 1008.7 - 11.4 - - 10 - - - -
19/10:30pm 26.0 CALM 0 0 1009.0 - 11.4 - - 10 - - - -
19/10:00pm 26.3 SW 3 - 1009.2 - 11.4 - - 10 - - - -
19/09:30pm 26.0 SSW 2 - 1009.0 - 11.4 - Partly cloudy 10 - - - -
19/09:00pm 26.7 CALM 0 - 1009.2 - 11.4 - Mostly clear 10 - - - -
19/08:30pm 26.6 CALM 0 0 1008.7 - 11.4 - Partly cloudy 10 - - - -
19/08:14pm 27.0 CALM 0 - 1009.0 - 11.4 - Partly cloudy 10 - - - -
19/08:00pm 26.7 CALM 0 - 1008.4 - 11.4 - Partly cloudy 10 - - - -
19/07:30pm 27.0 S 2 - 1008.0 - 11.4 - Partly cloudy 10 - - - -
19/07:25pm 27.0 SSW 3 - 1008.0 - 11.4 - Partly cloudy 10 - - - -
19/07:00pm 27.0 WNW 2 4 1007.3 - 11.4 - - 10 - - - -
19/06:30pm 27.2 NW 4 5 1007.3 - 11.4 - - 10 - - - -
19/06:00pm 27.6 NW 3 - 1007.2 - 11.4 - Mostly clear 10 - - - -
19/05:31pm 28.0 CALM 0 - 1007.0 - 11.4 - Partly cloudy 10 - - - -
19/05:30pm 28.0 CALM 0 - 1007.0 - 11.4 - Partly cloudy 10 - - - -
19/05:00pm 27.9 CALM 0 - 1007.1 - 11.4 - Partly cloudy 10 - - - -
19/04:55pm 28.0 W 1 - 1007.0 - 11.4 - Partly cloudy 10 - - - -
19/04:30pm 28.0 W 5 7 1006.5 - 11.4 - - 10 - - - -
19/04:00pm 28.1 SW 6 - 1006.5 - 11.4 - - 10 - - - -
19/03:30pm 28.2 WSW 8 11 1006.6 - 11.2 - - 10 - - - -
19/03:10pm 28.0 W 9 - 1007.0 - 11.2 - Partly cloudy 10 - - - -
19/03:00pm 28.3 WSW 7 - 1007.0 - 11.2 - Partly cloudy 10 - - - -
19/02:30pm 28.0 W 5 - 1007.0 - 11.2 - Cloudy 10 - - - -
19/02:10pm 28.0 SW 5 - 1007.0 - 11.2 - Partly cloudy 10 - - - -
19/02:00pm 28.2 SW 6 8 1007.4 - 11.2 - Partly cloudy 10 - - - -
19/01:30pm 28.0 W 10 - 1007.0 - 11.2 - - 10 - - - -
19/01:00pm 27.3 W 4 - 1007.3 - 11.2 - Partly cloudy 10 - - - -
19/12:30pm 27.4 W 7 9 1007.9 - 11.2 - - 10 - - - -
19/12:00pm 26.8 NNW 7 12 1008.8 - 11.2 Recent precip. Mostly clear 10 - - - -
19/11:30am 26.0 NNW 5 - 1009.0 - 11.2 - Partly cloudy 10 - - - -
19/11:00am 26.8 NNW 6 - 1009.6 - 11.0 - Partly cloudy 10 - - - -
19/10:30am 27.0 NW 9 - 1010.0 - 11.0 - Partly cloudy 10 - - - -
19/10:22am 27.0 NW 8 - 1010.0 - 11.0 - Partly cloudy 10 - - - -
19/10:00am 27.7 WNW 5 - 1010.2 - 9.4 - Partly cloudy 1 - - - -
19/09:54am 29.0 W 6 - 1010.0 - 2.8 - Partly cloudy 5 - - - -
19/09:30am 30.0 SW 8 - 1010.0 - 0.0 - Partly cloudy 10 - - - -
19/09:18am 30.0 SW 9 - 1010.0 - 0.0 - Partly cloudy 10 - - - -
19/09:00am 29.4 WSW 10 - 1010.1 - 0.0 - Cloudy 10 - - - -
19/08:30am 29.0 W 10 - 1010.0 - 0.0 - Partly cloudy 10 - - - -
19/08:00am 29.0 W 9 - 1009.4 - 0.0 - Partly cloudy 10 - - - -
19/07:56am 29.0 W 10 - 1009.0 - 0.0 - Partly cloudy 10 - - - -
19/07:30am 29.0 W 8 - 1009.0 - 0.0 - Partly cloudy 10 - - - -
19/07:00am 28.3 WSW 8 12 1009.2 - 0.0 - - 10 - - - -
19/06:30am 28.0 W 8 - 1009.0 - 0.0 - Partly cloudy 10 - - - -
19/06:00am 27.9 W 8 - 1008.1 - 0.0 - Mostly cloudy 10 - - - -
19/05:30am 28.0 W 10 - 1008.0 - 0.0 - Partly cloudy 10 - - - -
19/05:00am 27.6 W 7 - 1007.7 - 0.0 - Partly cloudy 10 - - - -
19/04:30am 27.0 WSW 4 6 1007.6 - 0.0 - Partly cloudy 10 - - - -
19/04:00am 27.1 W 6 - 1007.6 - 0.0 - Partly cloudy 10 - - - -
19/03:30am 27.1 W 6 9 1007.5 - 0.0 - Partly cloudy 10 - - - -
19/03:00am 26.6 W 6 8 1007.1 - 0.0 - - 10 - - - -
19/02:30am 26.3 W 5 8 1007.3 - 0.0 - - 10 - - - -
19/02:00am 26.0 W 5 6 1007.4 - 0.0 - - 10 - - - -
19/01:30am 26.1 WSW 4 5 1007.6 - 0.0 - - 10 - - - -
19/01:00am 26.2 W 3 6 1008.3 - 0.0 - - 10 - - - -

Other Formats:

Comma delimited format used in spreadsheet applications
http://www.bom.gov.au/fwo/IDW60701/IDW60701.95101.axf

JavaScript Object Notation format (JSON) in row-major order
http://www.bom.gov.au/fwo/IDW60701/IDW60701.95101.json